Regional Weather Roundup
Issued by NWS

Current Version | Previous Version | Text Only | Print | Product List | Glossary On
Versions: 1 2 3 4 5 6 7 8 9 10 11 12 13 14 15 16 17 18 19 20 21 22 23 24 25 26 27 28 29 30 31 32 33 34 35 36 37 38 39 40 41 42 43 44 45 46 47 48 49 50
000
ASUS45 KABQ 030101
RWRNM
NEW MEXICO REGIONAL WEATHER ROUNDUP
NATIONAL WEATHER SERVICE ALBUQUERQUE NM
700 PM MDT WED SEP 02 2015

NOTE: "FAIR" MEANS FEW OR NO CLOUDS BELOW 12,000 FEET AGL WITH NO
       SIGNIFICANT WEATHER OR OBSTRUCTIONS TO VISION.

      THIS PRODUCT IS RELEASED AS TWO VERSIONS.  ONE VERSION NEAR
      THE TOP OF THE HOUR CONTAINING PRELIMINARY DATA FROM ALBUQUERQUE
      AND OTHER STATIONS.  A FINAL VERSION WITH ADDITIONAL DATA IS
      ISSUED ABOUT 10 MINUTES AFTER THE HOUR.

NMZ501-503-504-510>518-030200-
NORTHWEST PLATEAU/NORTHCENTRAL MOUNTAINS

CITY           SKY/WX    TMP DP  RH WIND       PRES   REMARKS
FARMINGTON     CLEAR     76  49  38 CALM      30.10R
LOS ALAMOS     MOCLDY    74  42  31 SW5       30.24R
SANTA FE       MOCLDY    73  46  38 SW25G36   30.18R
TAOS           MOCLDY    75  39  27 SW10      30.23S
ANGEL FIRE     FAIR      66  44  46 W9G20     30.32R

$$
NMZ402-403-502-505>509-030200-
WESTCENTRAL MOUNTAINS/SOUTHWEST MOUNTAINS

CITY           SKY/WX    TMP DP  RH WIND       PRES   REMARKS
GALLUP         CLOUDY    67  47  48 W6        30.25R
GRANTS         MOCLDY    63  58  85 SE3       30.25F
SILVER CITY      N/A     63  57  82 S15G29    30.25R THUNDER HAZE

$$
NMZ407-409-411-412-030200-
SOUTHERN DESERTS

CITY           SKY/WX    TMP DP  RH WIND       PRES   REMARKS
DEMING         CLOUDY    75  50  41 NW21G32   30.09R
HOLLOMAN AFB   PTCLDY    92  40  15 W7        29.96R
ALAMOGORDO     PTCLDY    90  41  18 S7        29.99R
T OR C         LGT RAIN  78  53  41 SE22G28   30.11R

$$
NMZ519>523-030200-
CENTRAL VALLEYS/CENTRAL HIGHLANDS

CITY           SKY/WX    TMP DP  RH WIND       PRES   REMARKS
ALBUQUERQUE    CLOUDY    77  44  30 CALM      30.13R
DOUBLE EAGLE   MOCLDY    66  54  63 W16       30.19R
MORIARTY ARPT  FAIR      75  43  32 W15G21    30.16S
CLINES CORNERS MOCLDY    71  47  42 W18       30.21R
BELEN          FAIR      71  54  55 NW9       30.11S
SOCORRO        NOT AVBL

$$
NMZ524>526-539-540-030200-
SOUTHCENTRAL MOUNTAINS

CITY           SKY/WX    TMP DP  RH WIND       PRES   REMARKS
RUIDOSO        NOT AVBL

$$
NMZ527>531-030200-
NORTHEAST HIGHLANDS/NORTHEAST PLAINS

CITY           SKY/WX    TMP DP  RH WIND       PRES   REMARKS
LAS VEGAS      MOCLDY    71  47  42 NW7       30.19S
RATON          TSTM      65  54  67 W13       30.17R
CLAYTON        PTCLDY    82  54  37 S8        30.01S

$$
NMZ532>537-030200-
EASTCENTRAL PLAINS

CITY           SKY/WX    TMP DP  RH WIND       PRES   REMARKS
TUCUMCARI      PTCLDY    87  48  25 SW8       29.94S
CANNON AFB     CLEAR     86  50  28 S18       30.01R
CLOVIS AIRPORT CLEAR     84  50  30 S16       30.03R

$$
NMZ028-029-538-030200-
SOUTHEAST PLAINS

CITY           SKY/WX    TMP DP  RH WIND       PRES   REMARKS
ROSWELL        MOCLDY    91  46  21 S12       29.97S
ARTESIA        MOCLDY    90  50  25 SE15G21   29.97S
CARLSBAD       MOCLDY    92  49  22 SE14      29.95S
HOBBS          PTCLDY    84  50  30 S9        30.02S


$$



USA.gov is the U.S. government's official web portal to all federal, state and local government web resources and services.